Location: Newark
(40.7119°N, 74.0097°W)
Time: 22:36:27
(UTC+00:00)

Tiangong - Pass Details

Date: 24 June 2021
Orbit: 374 x 386 km, 41.5° (Epoch: 27 July)

Event Time Altitude Azimuth Distance (km) Brightness Sun altitude
Exits shadow 08:04:56 16° 267° (W) 1,088 2.9 -12.6°
Maximum altitude 08:07:19 80° 354° (N) 388 1.1 -12.3°
Drops below altitude 10° 08:10:28 10° 82° (E) 1,395 4.7 -11.9°
Sets 08:12:33 0° 83° (E) 2,252 5.8 -11.6°
